Regional Weather Roundup
Issued by NWS

Home | Current Version | Previous Version | Graphics & Text | Print | Product List | Glossary On
Versions: 1 2 3 4 5 6 7 8 9 10 11 12 13 14 15 16 17 18 19 20 21 22 23 24 25 26 27 28 29 30 31 32 33 34 35 36 37 38 39 40 41 42 43 44 45 46 47 48 49 50
547
ASUS43 KIND 031209
RWRIN

WEATHER ROUNDUP FOR INDIANA
NATIONAL WEATHER SERVICE INDIANAPOLIS IN
800 AM EDT TUE MAY 03 2016

NOTE: "FAIR" INDICATES FEW OR NO CLOUDS BELOW 12,000 FEET WITH NO
SIGNIFICANT WEATHER AND/OR OBSTRUCTIONS TO VISIBILITY.

* - STATION DOES NOT REPORT WEATHER SUCH AS PRECIPITATION OR FOG.

+ - STATION NOT QUALITY CONTROLLED BY THE NATIONAL WEATHER SERVICE.
    USE DATA WITH CAUTION...ESPECIALLY DEWPOINT AND RELATIVE
    HUMIDITY OBSERVATIONS.

INZ001>003-010>013-019-020-031300-
NORTHWEST INDIANA

CITY           SKY/WX    TMP DP  RH WIND       PRES   REMARKS
GARY /AIRPORT/ MOSUNNY   45  45 100 W3        29.98S
KNOX *+        CLOUDY    43  37  81 CALM      29.97S
LA PORTE +     CLOUDY    45  40  82 NW3       29.98R
6HR MIN TEMP:  41; 6HR MAX TEMP:  48;

MICHIGAN CITY+ SUNNY     39  39 100 CALM      29.98S FOG
MONTICELLO +   CLOUDY    47  41  80 NW8       29.97R
6HR MIN TEMP:  47; 6HR MAX TEMP:  48;

RENSSELAER +   CLOUDY    45  41  87 NW5       29.99R
VALPARAISO     CLOUDY    46  39  76 CALM      29.98R
6HR MIN TEMP:  42; 6HR MAX TEMP:  48;


$$

LMZ046-743>745-031300-
SOUTHERN LAKE MICHIGAN

STATION/POSITION TIME  TEMP    WIND        PRES    WAVE
                       AIR SEA DIR/SP/G            HT
                 (UTC) (F)     (DEG/KT/KT) (MB)    (FT)
BURNS HARBOR     1102   47     310/  5/  5 1015.6S
MICHIGAN CITY    1150   48     310/  2/  2   N/A

$$

INZ004-005-014>016-021>024-031300-
NORTH CENTRAL INDIANA

CITY           SKY/WX    TMP DP  RH WIND       PRES   REMARKS
ELKHART        CLOUDY    46  45  93 NW3       29.97R
GOSHEN         CLOUDY    49  47  93 CALM      29.95S
6HR MIN TEMP:  47; 6HR MAX TEMP:  49;

LOGANSPORT +   DRIZZLE   48  46  93 N3        29.97R
PERU/GRISSOM   CLOUDY    50  50 100 N6        29.94S
                                      6HR PCP:  0.07;

ROCHESTER +    CLOUDY    50  50 100 NW3       29.96R FOG
SOUTH BEND     CLOUDY    44  40  85 NW3       29.97R
6HR MIN TEMP:  39; 6HR MAX TEMP:  47;

WARSAW +       CLOUDY    46  46 100 CALM      29.95S FOG

$$

INZ006>009-017-018-025>027-031300-
NORTHEAST INDIANA

CITY           SKY/WX    TMP DP  RH WIND       PRES   REMARKS
ANGOLA *+      CLOUDY    48  39  71 CALM      29.95R
AUBURN +       CLOUDY    48  45  87 CALM      29.96R
FORT WAYNE     LGT RAIN  49  47  93 N3        29.96R FOG
6HR MIN TEMP:  49; 6HR MAX TEMP:  50; 6HR PCP: TRACE;

HUNTINGTON +   LGT RAIN  48  47  95 CALM      29.95R
                                      6HR PCP:  0.01;


$$

INZ028-029-035-036-043>045-051>053-031300-
WEST CENTRAL INDIANA

CITY           SKY/WX    TMP DP  RH WIND       PRES   REMARKS
CRAWFORDSVL +  CLOUDY    47  47 100 N7        29.96R FOG
6HR MIN TEMP:  47; 6HR MAX TEMP:  48;

GREENCASTLE +  CLOUDY    48  48 100 N7        29.96R
LAFAYETTE      CLOUDY    48  43  82 NW8       29.97R
6HR MIN TEMP:  47; 6HR MAX TEMP:  49;

TERRE HAUTE    CLOUDY    50  47  89 NW8       29.97R
6HR MIN TEMP:  50; 6HR MAX TEMP:  52;


$$

INZ030>032-037>040-046>048-054>057-064-065-031300-
CENTRAL INDIANA

CITY           SKY/WX    TMP DP  RH WIND       PRES   REMARKS
CP ATTERBURY + DRIZZLE   52  50  93 NW6       29.93S
FRANKFORT +    DRIZZLE   49  49 100 CALM      29.97R
6HR MIN TEMP:  49; 6HR MAX TEMP:  50; 6HR PCP:  0.01;

GREENWOOD *+   CLOUDY    50  50 100 N7        29.94
INDIANAPOLIS   LGT RAIN  50  48  93 NW10      29.92R FOG
6HR MIN TEMP:  50; 6HR MAX TEMP:  52; 6HR PCP:  0.14;

-EAGLE CREEK   LGT RAIN  51  49  92 NW7       29.93R FOG
6HR MIN TEMP:  51; 6HR MAX TEMP:  52; 6HR PCP:  0.07;

KOKOMO *+      CLOUDY    48  46  93 N7        29.95R
6HR MIN TEMP:  48; 6HR MAX TEMP:  50; 6HR PCP:  0.07;

MARION +       CLOUDY    49  47  95 CALM      29.96R FOG
SHELBYVILLE    CLOUDY    53  49  86 NE8       29.92R FOG
6HR MIN TEMP:  52; 6HR MAX TEMP:  56; 6HR PCP:  0.21;

ZIONSVILLE +   DRIZZLE   48  47  97 NE5       29.95R
6HR MIN TEMP:  48; 6HR MAX TEMP:  49; 6HR PCP:  0.03;


$$

INZ033-034-041-042-049-050-058-059-031300-
EAST CENTRAL INDIANA

CITY           SKY/WX    TMP DP  RH WIND       PRES   REMARKS
MUNCIE         LGT RAIN  51  46  83 NE7       29.94R
6HR MIN TEMP:  51; 6HR MAX TEMP:  53; 6HR PCP: TRACE;


$$

INZ060-061-067>069-081>083-085>088-031300-
SOUTHWEST INDIANA

CITY           SKY/WX    TMP DP  RH WIND       PRES   REMARKS
EVANSVILLE     SUNNY     52  49  89 NW5       29.98R
6HR MIN TEMP:  51; 6HR MAX TEMP:  55;

HUNTINGBURG *+ CLOUDY    52  48  87 NW6       29.96S
6HR MIN TEMP:  48; 6HR MAX TEMP:  52;

WASHINGTON +   CLOUDY    50  50 100 NW7       29.96R FOG
6HR MIN TEMP:  47; 6HR MAX TEMP:  53;


$$

INZ062-063-066-070>080-084-089>092-031300-
SOUTH CENTRAL AND SOUTHEAST INDIANA

CITY           SKY/WX    TMP DP  RH WIND       PRES   REMARKS
BLOOMINGTON    CLOUDY    51  48  89 NW5       29.94R
6HR MIN TEMP:  51; 6HR MAX TEMP:  52;

MADISON *+     PTSUNNY   52  48  87 W3        29.94S
NORTH VERNON + CLOUDY   N/A N/A N/A CALM      29.93R
SEYMOUR +      PTSUNNY   54  50  87 CALM      29.93S

$$





USA.gov is the U.S. government's official web portal to all federal, state and local government web resources and services.